Location: Corsier
(46.2637°N, 6.2238°E)
Time: 18:48:41
(UTC+00:00)

Cosmos 1869 - Pass Details

Date: 07 June 2020
Orbit: 519 x 563 km, 82.5° (Epoch: 10 July)

Event Time Altitude Azimuth Distance (km) Brightness Sun altitude
Rises 01:24:40 0° 352° (N) 2,662 7.8 -16.5°
Reaches altitude 10° 01:26:49 10° 354° (N) 1,766 6.8 -16.4°
Maximum altitude 01:30:41 74° 80° (E) 545 3.3 -16.1°
Enters shadow 01:33:05 22° 163° (SSE) 1,176 4.6 -15.9°
